Regional Weather Roundup
Issued by NWS Albany, NY

Home | Current Version | Previous Version | Text Only | Print | Product List | Glossary On
Versions: 1 2 3 4 5 6 7 8 9 10 11 12 13 14 15 16 17 18 19 20 21 22 23 24 25 26 27 28 29 30 31 32 33 34 35 36 37 38 39 40 41 42 43 44 45 46 47 48 49 50
000
ASUS41 KALY 021810
RWRALY

NEW YORK STATE HOURLY WEATHER ROUNDUP
NATIONAL WEATHER SERVICE ALBANY NY
200 PM EDT THU JUL 02 2015

NOTE: "FAIR" INDICATES FEW OR NO CLOUDS BELOW 12,000 FEET WITH NO
SIGNIFICANT WEATHER AND/OR NO OBSTRUCTIONS TO VISIBILITY.

NYZ032-033-038>043-046>054-057>066-NYZ062>081-021900-
EAST


CITY           SKY/WX    TMP DP  RH WIND       PRES   REMARKS
ALBANY         MOSUNNY   75  54  47 NW9       29.90F
GLENS FALLS    MOSUNNY   74  51  44 SW6       29.88F
POUGHKEEPSIE   MOSUNNY   77  57  50 VRB3      29.89F
NEWBURGH       MOSUNNY   75  59  57 CALM      29.92S
MONTGOMERY     MOSUNNY   77  59  53 VRB7      29.90S
WHITE PLAINS   CLOUDY    76  60  57 SE10      29.90S
ISLIP          CLOUDY    76  60  57 SE5       29.88F
NEW YORK CITY  CLOUDY    81  56  42 NE6       29.89S
CENTRAL PARK   CLOUDY    79  58  48 CALM      29.92S
$$

NYZ005>009-017-018-044>046-055-056-021900-
CENTRAL


CITY           SKY/WX    TMP DP  RH WIND       PRES   REMARKS
FULTON         SUNNY     69  48  47 NW9       29.96F
SYRACUSE       MOSUNNY   71  54  54 NW12      29.95S
ROME           PTSUNNY   69  51  52 W9G21     29.95S
ELMIRA         CLOUDY    71  58  63 E5        29.94R
BINGHAMTON     PTSUNNY   68  54  60 NW7       29.96R
MONTICELLO     PTSUNNY   72  55  56 W9        29.95S
$$

NYZ026>034-041>043-021900-
NORTH


CITY           SKY/WX    TMP DP  RH WIND       PRES   REMARKS
WATERTOWN      SUNNY     67  49  52 W13       29.96R
FORT DRUM      NOT AVBL
MASSENA        MOSUNNY   70  47  43 SW10G17   29.92R
SARANAC LAKE   MOSUNNY   64  40  41 NW8       29.92S
PLATTSBURGH    SUNNY     73  44  35 W8        29.88R
$$

NYZ001>004-010>016-019>021-021900-
WEST


CITY           SKY/WX    TMP DP  RH WIND       PRES   REMARKS
NIAGARA FALLS  MOSUNNY   68  45  43 VRB7      29.99S
BUFFALO        MOSUNNY   70  51  51 VRB6      29.98S
DUNKIRK        SUNNY     66  57  72 N9        29.99F
JAMESTOWN      MOSUNNY   66  54  63 NW10      29.99F
WELLSVILLE     PTSUNNY   67  52  58 N3        29.99F
ROCHESTER      MOSUNNY   70  52  52 N8        29.98S
PENN YAN       MOSUNNY   71  56  58 VRB5      29.97R
$$

             KEY
       WCI = WIND CHILL INDEX
       VSB = VISIBILITY
       HX  = HEAT INDEX
$$



USA.gov is the U.S. government's official web portal to all federal, state and local government web resources and services.